sat.trackr.live / text

‹ back to catalog

INMARSAT 4-F3

NORAD 33278 · 2008-039A

PAYLOAD ACTIVE UNKNOWN

§ Identity

Operator
Country
IM
Launch date
2008-08-18
Launch site
TYMSC
Launch vehicle
Mass (kg)
RCS (m²)
12.62

Purposes: comms

External: N2YO · Heavens-Above · Gunter

§ Orbital elements

Epoch: 2026-05-25T03:16:33.003840Z

Period
1,436.12 min
Inclination
4.2739°
Eccentricity
0.0002850
Mean motion
1.00269890 rev/d
Perigee alt
35,775.1 km
Apogee alt
35,799.1 km
Semi-major
42,165.3 km
B*
0.0000e+0
RAAN
31.5396°
Arg perigee
32.2105°
Mean anomaly
130.1141°
Rev number
4,631

§ Raw data

INMARSAT 4-F31 33278U 08039A   26145.13649310 -.00000143  00000+0  00000+0 0  99952 33278   4.2739  31.5396 0002850  32.2105 130.1141  1.00269890 46315

JSON: /api/v1/satellites/33278 · /tle

For live sub-satellite position, see the globe view (requires WebGL).

§ Visibility from observer

Set your observer location to see the next 7 days of passes ≥ 10°. The values pass through the URL so the page stays shareable.

No JS? Fill the form by hand. The geolocation button needs JavaScript.